Time,TemperatureF,DewpointF,PressureIn,WindDirection,WindDirectionDegrees,WindSpeedMPH,WindSpeedGustMPH,Humidity,HourlyPrecipIn,Conditions,Clouds,dailyrainin,SoftwareType,DateUTC
2013-03-04 00:04:00,18.5,10.5,26.35,WNW,293,18.1,18.1,71,0.00,,,0.00,WUHU216HW,2013-03-04 05:04:00,
2013-03-04 00:09:00,18.5,10.5,26.36,NW,315,13.6,18.1,71,0.00,,,0.00,WUHU216HW,2013-03-04 05:09:00,
2013-03-04 00:15:00,18.3,10.4,26.35,NW,315,18.5,18.5,71,0.00,,,0.00,WUHU216HW,2013-03-04 05:15:00,
2013-03-04 00:20:00,18.3,10.4,26.35,NW,315,14.5,18.5,71,0.00,,,0.00,WUHU216HW,2013-03-04 05:20:00,
2013-03-04 00:25:00,18.3,10.4,26.35,NNW,338,14.0,18.5,71,0.00,,,0.00,WUHU216HW,2013-03-04 05:25:00,
2013-03-04 00:30:00,18.3,10.4,26.36,WNW,293,14.3,17.8,71,0.00,,,0.00,WUHU216HW,2013-03-04 05:30:00,
2013-03-04 00:35:00,18.3,10.4,26.36,NW,315,15.6,17.8,71,0.00,,,0.00,WUHU216HW,2013-03-04 05:35:00,
2013-03-04 00:40:00,18.3,10.4,26.36,WNW,293,17.6,17.6,71,0.00,,,0.00,WUHU216HW,2013-03-04 05:40:00,
2013-03-04 00:45:00,18.3,10.4,26.36,NNW,338,14.9,17.6,71,0.00,,,0.00,WUHU216HW,2013-03-04 05:45:00,
2013-03-04 00:51:00,18.1,9.9,26.36,NW,315,12.9,17.2,70,0.00,,,0.00,WUHU216HW,2013-03-04 05:51:00,
2013-03-04 00:56:00,18.1,9.9,26.36,WNW,293,21.2,23.0,70,0.00,,,0.00,WUHU216HW,2013-03-04 05:56:00,
2013-03-04 01:01:00,18.1,9.9,26.36,NW,315,8.0,23.0,70,0.00,,,0.00,WUHU216HW,2013-03-04 06:01:00,
2013-03-04 01:06:00,18.1,9.9,26.36,NW,315,12.3,21.2,70,0.00,,,0.00,WUHU216HW,2013-03-04 06:06:00,
2013-03-04 01:11:00,18.1,9.9,26.36,NW,315,19.9,23.2,70,0.00,,,0.00,WUHU216HW,2013-03-04 06:11:00,
2013-03-04 01:16:00,18.1,9.9,26.37,WNW,293,16.1,23.2,70,0.00,,,0.00,WUHU216HW,2013-03-04 06:16:00,
2013-03-04 01:21:00,18.1,9.9,26.37,NNW,338,12.3,19.9,70,0.00,,,0.00,WUHU216HW,2013-03-04 06:21:00,
2013-03-04 01:26:00,18.3,10.1,26.36,North,0,21.4,21.4,70,0.00,,,0.00,WUHU216HW,2013-03-04 06:26:00,
2013-03-04 01:31:00,18.3,10.1,26.37,NNW,338,16.3,21.4,70,0.00,,,0.00,WUHU216HW,2013-03-04 06:31:00,
2013-03-04 01:36:00,18.3,10.1,26.37,NW,315,13.4,21.4,70,0.00,,,0.00,WUHU216HW,2013-03-04 06:36:00,
2013-03-04 01:41:00,18.3,10.1,26.37,West,270,13.4,15.6,70,0.00,,,0.00,WUHU216HW,2013-03-04 06:41:00,
2013-03-04 01:46:00,18.3,10.1,26.38,NW,315,17.6,18.5,70,0.00,,,0.00,WUHU216HW,2013-03-04 06:46:00,
2013-03-04 01:51:00,18.3,10.1,26.37,WNW,293,21.6,21.6,70,0.00,,,0.00,WUHU216HW,2013-03-04 06:51:00,
2013-03-04 01:56:00,18.3,10.1,26.37,NNW,338,14.5,21.6,70,0.00,,,0.00,WUHU216HW,2013-03-04 06:56:00,
2013-03-04 02:02:00,18.3,10.1,26.38,NW,315,17.4,17.4,70,0.00,,,0.00,WUHU216HW,2013-03-04 07:02:00,
2013-03-04 02:07:00,18.3,10.1,26.37,WNW,293,16.3,17.4,70,0.00,,,0.00,WUHU216HW,2013-03-04 07:07:00,
2013-03-04 02:12:00,18.5,10.5,26.37,NNW,338,9.8,18.7,71,0.00,,,0.00,WUHU216HW,2013-03-04 07:12:00,
2013-03-04 02:17:00,18.5,10.5,26.37,NW,315,14.0,18.7,71,0.00,,,0.00,WUHU216HW,2013-03-04 07:17:00,
2013-03-04 02:22:00,18.5,10.5,26.38,NW,315,16.7,17.4,71,0.00,,,0.00,WUHU216HW,2013-03-04 07:22:00,
2013-03-04 02:27:00,18.5,10.5,26.37,WNW,293,17.0,17.4,71,0.00,,,0.00,WUHU216HW,2013-03-04 07:27:00,
2013-03-04 02:32:00,18.5,10.5,26.38,WNW,293,19.4,24.8,71,0.00,,,0.00,WUHU216HW,2013-03-04 07:32:00,
2013-03-04 02:38:00,18.5,10.5,26.38,WNW,293,24.3,24.8,71,0.00,,,0.00,WUHU216HW,2013-03-04 07:38:00,
2013-03-04 02:43:00,18.5,10.5,26.37,West,270,15.6,24.3,71,0.00,,,0.00,WUHU216HW,2013-03-04 07:43:00,
2013-03-04 02:48:00,18.5,10.5,26.38,WNW,293,18.5,18.5,71,0.00,,,0.00,WUHU216HW,2013-03-04 07:48:00,
2013-03-04 02:53:00,18.5,10.3,26.37,NW,315,19.0,19.4,70,0.00,,,0.00,WUHU216HW,2013-03-04 07:53:00,
2013-03-04 02:58:00,18.5,10.5,26.37,NW,315,19.2,19.4,71,0.00,,,0.00,WUHU216HW,2013-03-04 07:58:00,
2013-03-04 03:03:00,18.5,10.5,26.38,NW,315,19.6,20.5,71,0.00,,,0.00,WUHU216HW,2013-03-04 08:03:00,
2013-03-04 03:08:00,18.5,10.5,26.38,WNW,293,14.7,20.5,71,0.00,,,0.00,WUHU216HW,2013-03-04 08:08:00,
2013-03-04 03:13:00,18.3,10.4,26.38,WNW,293,13.1,19.2,71,0.00,,,0.00,WUHU216HW,2013-03-04 08:13:00,
2013-03-04 03:18:00,18.3,10.4,26.38,NW,315,17.4,19.2,71,0.00,,,0.00,WUHU216HW,2013-03-04 08:18:00,
2013-03-04 03:23:00,18.3,10.4,26.38,NNW,338,14.9,18.7,71,0.00,,,0.00,WUHU216HW,2013-03-04 08:23:00,
2013-03-04 03:28:00,18.3,10.4,26.38,NNW,338,11.8,21.4,71,0.00,,,0.00,WUHU216HW,2013-03-04 08:28:00,
2013-03-04 03:33:00,18.3,10.4,26.38,NNW,338,17.6,21.4,71,0.00,,,0.00,WUHU216HW,2013-03-04 08:33:00,
2013-03-04 03:38:00,18.3,10.4,26.38,NW,315,21.2,24.6,71,0.00,,,0.00,WUHU216HW,2013-03-04 08:38:00,
2013-03-04 03:44:00,18.3,10.4,26.38,WNW,293,15.6,24.6,71,0.00,,,0.00,WUHU216HW,2013-03-04 08:44:00,
2013-03-04 03:49:00,18.3,10.7,26.38,NW,315,14.7,17.0,72,0.00,,,0.00,WUHU216HW,2013-03-04 08:49:00,
2013-03-04 03:54:00,18.3,10.7,26.39,NNW,338,17.6,20.3,72,0.00,,,0.00,WUHU216HW,2013-03-04 08:54:00,
2013-03-04 03:59:00,18.3,10.7,26.39,NNW,338,14.9,20.8,72,0.00,,,0.00,WUHU216HW,2013-03-04 08:59:00,
2013-03-04 04:04:00,18.3,10.7,26.39,WNW,293,19.9,20.8,72,0.00,,,0.00,WUHU216HW,2013-03-04 09:04:00,
2013-03-04 04:09:00,18.3,10.7,26.38,NW,315,18.1,19.9,72,0.00,,,0.00,WUHU216HW,2013-03-04 09:09:00,
2013-03-04 04:14:00,18.3,10.7,26.39,NW,315,13.1,18.1,72,0.00,,,0.00,WUHU216HW,2013-03-04 09:14:00,
2013-03-04 04:19:00,18.3,10.7,26.39,West,270,13.6,16.3,72,0.00,,,0.00,WUHU216HW,2013-03-04 09:19:00,
2013-03-04 04:24:00,18.3,10.7,26.39,NW,315,18.5,21.6,72,0.00,,,0.00,WUHU216HW,2013-03-04 09:24:00,
2013-03-04 04:29:00,18.3,10.7,26.39,NW,315,21.4,21.6,72,0.00,,,0.00,WUHU216HW,2013-03-04 09:29:00,
2013-03-04 04:35:00,18.3,10.7,26.40,NW,315,14.3,21.4,72,0.00,,,0.00,WUHU216HW,2013-03-04 09:35:00,
2013-03-04 04:40:00,18.3,10.7,26.40,NNW,338,15.6,21.4,72,0.00,,,0.00,WUHU216HW,2013-03-04 09:40:00,
2013-03-04 04:45:00,18.3,10.7,26.40,NNW,338,17.4,19.4,72,0.00,,,0.00,WUHU216HW,2013-03-04 09:45:00,
2013-03-04 04:50:00,18.3,10.7,26.40,WNW,293,20.5,23.9,72,0.00,,,0.00,WUHU216HW,2013-03-04 09:50:00,
2013-03-04 04:55:00,18.3,10.7,26.40,WNW,293,14.9,23.9,72,0.00,,,0.00,WUHU216HW,2013-03-04 09:55:00,
2013-03-04 05:00:00,18.3,10.7,26.40,WNW,293,13.6,20.5,72,0.00,,,0.00,WUHU216HW,2013-03-04 10:00:00,
2013-03-04 05:05:00,18.3,10.7,26.40,WNW,293,21.2,21.2,72,0.00,,,0.00,WUHU216HW,2013-03-04 10:05:00,
2013-03-04 05:10:00,18.3,10.7,26.40,WNW,293,17.0,21.2,72,0.00,,,0.00,WUHU216HW,2013-03-04 10:10:00,
2013-03-04 05:15:00,18.3,10.7,26.41,WNW,293,18.1,19.2,72,0.00,,,0.00,WUHU216HW,2013-03-04 10:15:00,
2013-03-04 05:20:00,18.3,10.7,26.41,WNW,293,20.5,20.5,72,0.00,,,0.00,WUHU216HW,2013-03-04 10:20:00,
2013-03-04 05:25:00,18.3,10.7,26.41,NW,315,14.7,20.5,72,0.00,,,0.00,WUHU216HW,2013-03-04 10:25:00,
2013-03-04 05:30:00,18.3,10.7,26.41,NNW,338,14.0,17.4,72,0.00,,,0.00,WUHU216HW,2013-03-04 10:30:00,
2013-03-04 05:36:00,18.3,10.7,26.41,WNW,293,17.0,17.0,72,0.00,,,0.00,WUHU216HW,2013-03-04 10:36:00,
2013-03-04 05:41:00,18.3,10.7,26.41,WNW,293,20.1,20.1,72,0.00,,,0.00,WUHU216HW,2013-03-04 10:41:00,
2013-03-04 05:46:00,18.3,10.7,26.41,NNW,338,20.5,20.5,72,0.00,,,0.00,WUHU216HW,2013-03-04 10:46:00,
2013-03-04 05:51:00,18.1,10.5,26.41,NNW,338,13.8,22.3,72,0.00,,,0.00,WUHU216HW,2013-03-04 10:51:00,
2013-03-04 05:56:00,18.1,10.5,26.41,NW,315,16.3,22.3,72,0.00,,,0.00,WUHU216HW,2013-03-04 10:56:00,
2013-03-04 06:01:00,18.1,10.5,26.42,WNW,293,13.8,22.1,72,0.00,,,0.00,WUHU216HW,2013-03-04 11:01:00,
2013-03-04 06:06:00,18.1,10.5,26.42,WNW,293,16.5,22.1,72,0.00,,,0.00,WUHU216HW,2013-03-04 11:06:00,
2013-03-04 06:11:00,18.1,10.5,26.42,NNW,338,13.4,17.8,72,0.00,,,0.00,WUHU216HW,2013-03-04 11:11:00,
2013-03-04 06:16:00,18.1,10.5,26.42,NW,315,14.5,17.8,72,0.00,,,0.00,WUHU216HW,2013-03-04 11:16:00,
2013-03-04 06:21:00,18.1,10.5,26.43,NW,315,12.7,16.7,72,0.00,,,0.00,WUHU216HW,2013-03-04 11:21:00,
2013-03-04 06:26:00,18.1,10.5,26.43,NW,315,12.5,16.7,72,0.00,,,0.00,WUHU216HW,2013-03-04 11:26:00,
2013-03-04 06:31:00,17.9,10.4,26.43,NNW,338,16.5,16.5,72,0.00,,,0.00,WUHU216HW,2013-03-04 11:31:00,
2013-03-04 06:36:00,18.1,10.5,26.44,NNW,338,15.2,17.6,72,0.00,,,0.00,WUHU216HW,2013-03-04 11:36:00,
2013-03-04 06:42:00,18.1,10.5,26.43,NW,315,14.7,17.6,72,0.00,,,0.00,WUHU216HW,2013-03-04 11:42:00,
2013-03-04 06:47:00,17.9,10.6,26.43,WNW,293,12.9,17.2,73,0.00,,,0.00,WUHU216HW,2013-03-04 11:47:00,
2013-03-04 06:52:00,18.1,10.8,26.43,NW,315,12.9,17.2,73,0.00,,,0.00,WUHU216HW,2013-03-04 11:52:00,
2013-03-04 06:57:00,18.1,10.5,26.44,NNW,338,20.8,22.8,72,0.00,,,0.00,WUHU216HW,2013-03-04 11:57:00,
2013-03-04 07:02:00,18.1,10.8,26.44,NNW,338,15.8,27.7,73,0.00,,,0.00,WUHU216HW,2013-03-04 12:02:00,
2013-03-04 07:07:00,17.9,10.6,26.44,NNW,338,14.5,27.7,73,0.00,,,0.00,WUHU216HW,2013-03-04 12:07:00,
2013-03-04 07:12:00,18.1,10.8,26.45,NW,315,14.7,25.0,73,0.00,,,0.00,WUHU216HW,2013-03-04 12:12:00,
2013-03-04 07:17:00,18.1,10.8,26.45,WNW,293,18.5,21.9,73,0.00,,,0.00,WUHU216HW,2013-03-04 12:17:00,
2013-03-04 07:22:00,18.1,10.8,26.45,NNW,338,16.7,21.9,73,0.00,,,0.00,WUHU216HW,2013-03-04 12:22:00,
2013-03-04 07:27:00,18.1,10.5,26.45,WNW,293,16.1,21.2,72,0.00,,,0.00,WUHU216HW,2013-03-04 12:27:00,
2013-03-04 07:32:00,18.3,11.0,26.45,NNW,338,14.9,21.2,73,0.00,,,0.00,WUHU216HW,2013-03-04 12:32:00,
2013-03-04 07:37:00,18.3,11.0,26.45,NNW,338,17.8,20.3,73,0.00,,,0.00,WUHU216HW,2013-03-04 12:37:00,
2013-03-04 07:43:00,18.3,11.0,26.45,NW,315,14.9,23.4,73,0.00,,,0.00,WUHU216HW,2013-03-04 12:43:00,
2013-03-04 07:48:00,18.3,10.7,26.45,NNW,338,16.7,23.4,72,0.00,,,0.00,WUHU216HW,2013-03-04 12:48:00,
2013-03-04 07:53:00,18.5,10.9,26.45,NNW,338,14.5,17.2,72,0.00,,,0.00,WUHU216HW,2013-03-04 12:53:00,
2013-03-04 07:58:00,18.5,10.9,26.45,NNW,338,13.8,17.2,72,0.00,,,0.00,WUHU216HW,2013-03-04 12:58:00,
2013-03-04 08:03:00,18.6,11.0,26.45,NNW,338,18.3,18.7,72,0.00,,,0.00,WUHU216HW,2013-03-04 13:03:00,
2013-03-04 08:08:00,18.6,11.0,26.45,NW,315,14.9,18.7,72,0.00,,,0.00,WUHU216HW,2013-03-04 13:08:00,
2013-03-04 08:13:00,18.6,11.3,26.45,NW,315,17.0,18.3,73,0.00,,,0.00,WUHU216HW,2013-03-04 13:13:00,
2013-03-04 08:18:00,18.6,11.3,26.46,NW,315,17.0,17.0,73,0.00,,,0.00,WUHU216HW,2013-03-04 13:18:00,
2013-03-04 08:23:00,18.6,11.3,26.46,NW,315,17.0,17.0,73,0.00,,,0.00,WUHU216HW,2013-03-04 13:23:00,
2013-03-04 08:28:00,18.6,11.3,26.47,NW,315,17.0,17.0,73,0.00,,,0.00,WUHU216HW,2013-03-04 13:28:00,
2013-03-04 08:33:00,18.6,11.3,26.47,NW,315,17.0,17.0,73,0.00,,,0.00,WUHU216HW,2013-03-04 13:33:00,
2013-03-04 08:38:00,19.2,11.3,26.48,NW,315,11.6,17.0,73,0.00,,,0.00,WUHU216HW,2013-03-04 13:38:00,
2013-03-04 08:43:00,19.5,12.2,26.48,WNW,293,21.9,21.9,73,0.00,,,0.00,WUHU216HW,2013-03-04 13:43:00,
2013-03-04 08:48:00,19.5,12.2,26.47,WNW,293,14.3,21.9,73,0.00,,,0.00,WUHU216HW,2013-03-04 13:48:00,
2013-03-04 08:53:00,19.5,12.2,26.47,WNW,293,14.3,21.9,73,0.00,,,0.00,WUHU216HW,2013-03-04 13:53:00,
2013-03-04 08:58:00,19.9,12.5,26.48,WNW,293,14.3,14.3,73,0.00,,,0.00,WUHU216HW,2013-03-04 13:58:00,
2013-03-04 09:03:00,19.9,12.5,26.48,WNW,293,14.3,14.3,73,0.00,,,0.00,WUHU216HW,2013-03-04 14:03:00,
2013-03-04 09:08:00,20.4,12.8,26.48,West,270,12.3,17.8,72,0.00,,,0.00,WUHU216HW,2013-03-04 14:08:00,
2013-03-04 09:13:00,20.8,13.1,26.48,WNW,293,12.9,17.8,72,0.00,,,0.00,WUHU216HW,2013-03-04 14:13:00,
2013-03-04 09:18:00,21.0,13.3,26.48,WNW,293,14.5,15.2,72,0.00,,,0.00,WUHU216HW,2013-03-04 14:18:00,
2013-03-04 09:23:00,21.3,13.7,26.48,WNW,293,19.0,19.0,72,0.00,,,0.00,WUHU216HW,2013-03-04 14:23:00,
2013-03-04 09:28:00,21.5,13.5,26.48,West,270,15.2,19.0,71,0.00,,,0.00,WUHU216HW,2013-03-04 14:28:00,
2013-03-04 09:33:00,21.7,13.4,26.48,West,270,10.9,19.0,70,0.00,,,0.00,WUHU216HW,2013-03-04 14:33:00,
2013-03-04 09:38:00,21.9,13.6,26.48,WNW,293,14.3,16.7,70,0.00,,,0.00,WUHU216HW,2013-03-04 14:38:00,
2013-03-04 09:43:00,21.9,13.2,26.47,NW,315,20.8,20.8,69,0.00,,,0.00,WUHU216HW,2013-03-04 14:43:00,
2013-03-04 09:48:00,22.1,13.4,26.47,NW,315,14.9,20.8,69,0.00,,,0.00,WUHU216HW,2013-03-04 14:48:00,
2013-03-04 09:53:00,22.4,13.4,26.47,NW,315,13.8,21.0,68,0.00,,,0.00,WUHU216HW,2013-03-04 14:53:00,
2013-03-04 09:58:00,22.6,13.6,26.47,NW,315,19.0,21.0,68,0.00,,,0.00,WUHU216HW,2013-03-04 14:58:00,
2013-03-04 10:03:00,22.8,13.8,26.47,NNW,338,13.6,19.2,68,0.00,,,0.00,WUHU216HW,2013-03-04 15:03:00,
2013-03-04 10:08:00,23.3,13.9,26.47,NW,315,12.9,17.4,67,0.00,,,0.00,WUHU216HW,2013-03-04 15:08:00,
2013-03-04 10:13:00,23.5,14.1,26.47,NW,315,11.4,21.0,67,0.00,,,0.00,WUHU216HW,2013-03-04 15:13:00,
2013-03-04 10:18:00,23.7,14.3,26.47,NW,315,15.2,21.0,67,0.00,,,0.00,WUHU216HW,2013-03-04 15:18:00,
2013-03-04 10:23:00,23.9,14.4,26.47,WNW,293,16.5,16.5,67,0.00,,,0.00,WUHU216HW,2013-03-04 15:23:00,
2013-03-04 10:28:00,24.0,14.6,26.48,WNW,293,15.4,16.5,67,0.00,,,0.00,WUHU216HW,2013-03-04 15:28:00,
2013-03-04 10:33:00,24.4,14.6,26.48,West,270,12.5,16.5,66,0.00,,,0.00,WUHU216HW,2013-03-04 15:33:00,
2013-03-04 10:38:00,24.9,15.1,26.48,NNW,338,11.6,17.4,66,0.00,,,0.00,WUHU216HW,2013-03-04 15:38:00,
2013-03-04 10:43:00,24.9,15.1,26.47,NNW,338,15.6,17.4,66,0.00,,,0.00,WUHU216HW,2013-03-04 15:43:00,
2013-03-04 10:48:00,25.3,14.4,26.47,NW,315,16.7,16.7,63,0.00,,,0.00,WUHU216HW,2013-03-04 15:48:00,
2013-03-04 10:53:00,25.5,14.2,26.46,NNW,338,17.0,22.3,62,0.00,,,0.00,WUHU216HW,2013-03-04 15:53:00,
2013-03-04 10:58:00,25.7,14.0,26.47,NW,315,17.6,22.3,61,0.00,,,0.00,WUHU216HW,2013-03-04 15:58:00,
2013-03-04 11:03:00,26.2,14.5,26.47,NNW,338,17.6,22.1,61,0.00,,,0.00,WUHU216HW,2013-03-04 16:03:00,
2013-03-04 11:09:00,26.4,14.7,26.47,WNW,293,14.3,17.6,61,0.00,,,0.00,WUHU216HW,2013-03-04 16:09:00,
2013-03-04 11:14:00,26.9,14.9,26.46,West,270,20.8,20.8,60,0.00,,,0.00,WUHU216HW,2013-03-04 16:14:00,
2013-03-04 11:19:00,27.1,14.2,26.46,NW,315,19.9,20.8,58,0.00,,,0.00,WUHU216HW,2013-03-04 16:19:00,
2013-03-04 11:24:00,27.3,14.4,26.47,NW,315,11.8,20.8,58,0.00,,,0.00,WUHU216HW,2013-03-04 16:24:00,
2013-03-04 11:29:00,27.6,14.7,26.47,WNW,293,13.4,19.4,58,0.00,,,0.00,WUHU216HW,2013-03-04 16:29:00,
2013-03-04 11:34:00,27.8,14.9,26.47,NW,315,17.8,19.4,58,0.00,,,0.00,WUHU216HW,2013-03-04 16:34:00,
2013-03-04 11:39:00,28.5,14.8,26.47,WNW,293,20.8,20.8,56,0.00,,,0.00,WUHU216HW,2013-03-04 16:39:00,
2013-03-04 11:44:00,28.9,14.7,26.47,NW,315,13.6,20.8,55,0.00,,,0.00,WUHU216HW,2013-03-04 16:44:00,
2013-03-04 11:49:00,29.1,14.9,26.47,NW,315,19.0,20.8,55,0.00,,,0.00,WUHU216HW,2013-03-04 16:49:00,
2013-03-04 11:54:00,29.4,15.2,26.47,NW,315,15.2,19.0,55,0.00,,,0.00,WUHU216HW,2013-03-04 16:54:00,
2013-03-04 11:59:00,29.6,14.9,26.47,WNW,293,12.7,22.1,54,0.00,,,0.00,WUHU216HW,2013-03-04 16:59:00,
2013-03-04 12:04:00,30.0,15.3,26.48,NW,315,11.6,22.1,54,0.00,,,0.00,WUHU216HW,2013-03-04 17:04:00,
2013-03-04 12:09:00,30.0,14.9,26.48,NNW,338,10.0,19.9,53,0.00,,,0.00,WUHU216HW,2013-03-04 17:09:00,
2013-03-04 12:14:00,30.2,15.4,26.48,NW,315,10.0,19.9,54,0.00,,,0.00,WUHU216HW,2013-03-04 17:14:00,
2013-03-04 12:19:00,30.5,15.8,26.48,NW,315,8.0,13.8,54,0.00,,,0.00,WUHU216HW,2013-03-04 17:19:00,
2013-03-04 12:24:00,30.9,16.1,26.48,NNW,338,6.2,13.8,54,0.00,,,0.00,WUHU216HW,2013-03-04 17:24:00,
2013-03-04 12:29:00,31.6,17.2,26.48,WNW,293,10.7,10.7,55,0.00,,,0.00,WUHU216HW,2013-03-04 17:29:00,
2013-03-04 12:34:00,31.6,16.8,26.48,NW,315,12.9,12.9,54,0.00,,,0.00,WUHU216HW,2013-03-04 17:34:00,
2013-03-04 12:39:00,32.1,17.3,26.48,WNW,293,11.1,12.9,54,0.00,,,0.00,WUHU216HW,2013-03-04 17:39:00,
2013-03-04 12:44:00,32.3,16.6,26.47,NW,315,14.0,16.5,52,0.00,,,0.00,WUHU216HW,2013-03-04 17:44:00,
2013-03-04 12:49:00,32.3,16.6,26.47,NW,315,8.5,16.5,52,0.00,,,0.00,WUHU216HW,2013-03-04 17:49:00,
2013-03-04 12:54:00,32.5,16.7,26.47,WNW,293,13.1,16.3,52,0.00,,,0.00,WUHU216HW,2013-03-04 17:54:00,
2013-03-04 12:59:00,32.7,16.9,26.47,WNW,293,14.9,16.3,52,0.00,,,0.00,WUHU216HW,2013-03-04 17:59:00,
2013-03-04 13:04:00,32.9,17.1,26.48,West,270,6.7,16.1,52,0.00,,,0.00,WUHU216HW,2013-03-04 18:04:00,
2013-03-04 13:51:00,34.7,17.4,26.46,West,270,6.0,6.0,49,0.00,,,0.00,WUHU216HW,2013-03-04 18:51:00,
2013-03-04 13:56:00,34.7,17.4,26.46,West,270,6.0,6.0,49,0.00,,,0.00,WUHU216HW,2013-03-04 18:56:00,
2013-03-04 14:01:00,35.2,17.4,26.46,NNW,338,2.9,6.7,48,0.00,,,0.00,WUHU216HW,2013-03-04 19:01:00,
2013-03-04 14:06:00,35.2,17.4,26.45,NNW,338,2.9,6.7,48,0.00,,,0.00,WUHU216HW,2013-03-04 19:06:00,
2013-03-04 14:11:00,35.2,16.9,26.45,NNW,338,5.3,5.3,47,0.00,,,0.00,WUHU216HW,2013-03-04 19:11:00,
2013-03-04 14:16:00,35.4,17.1,26.45,NW,315,7.6,7.6,47,0.00,,,0.00,WUHU216HW,2013-03-04 19:16:00,
2013-03-04 14:21:00,35.4,16.5,26.45,West,270,5.8,7.6,46,0.00,,,0.00,WUHU216HW,2013-03-04 19:21:00,
2013-03-04 14:27:00,35.4,17.1,26.45,WSW,248,7.3,7.6,47,0.00,,,0.00,WUHU216HW,2013-03-04 19:27:00,
2013-03-04 14:32:00,35.7,16.9,26.46,WSW,248,9.8,9.8,46,0.00,,,0.00,WUHU216HW,2013-03-04 19:32:00,
2013-03-04 14:37:00,35.9,17.6,26.46,WSW,248,0.0,9.8,47,0.00,,,0.00,WUHU216HW,2013-03-04 19:37:00,
2013-03-04 14:42:00,36.3,17.9,26.46,WSW,248,6.7,9.8,47,0.00,,,0.00,WUHU216HW,2013-03-04 19:42:00,
2013-03-04 14:47:00,36.3,17.4,26.46,WSW,248,9.1,9.1,46,0.00,,,0.00,WUHU216HW,2013-03-04 19:47:00,
2013-03-04 14:52:00,36.5,17.5,26.46,WSW,248,6.9,9.1,46,0.00,,,0.00,WUHU216HW,2013-03-04 19:52:00,
2013-03-04 14:57:00,36.6,17.2,26.46,WSW,248,9.6,9.6,45,0.00,,,0.00,WUHU216HW,2013-03-04 19:57:00,
2013-03-04 15:02:00,36.8,16.8,26.45,WNW,293,11.6,11.6,44,0.00,,,0.00,WUHU216HW,2013-03-04 20:02:00,
2013-03-04 15:07:00,36.8,16.8,26.45,WNW,293,11.6,11.6,44,0.00,,,0.00,WUHU216HW,2013-03-04 20:07:00,
2013-03-04 15:12:00,36.8,16.8,26.46,WNW,293,11.6,11.6,44,0.00,,,0.00,WUHU216HW,2013-03-04 20:12:00,
2013-03-04 15:17:00,36.8,16.8,26.45,WNW,293,11.6,11.6,44,0.00,,,0.00,WUHU216HW,2013-03-04 20:17:00,
2013-03-04 15:22:00,37.2,17.7,26.45,NNW,338,0.0,11.6,45,0.00,,,0.00,WUHU216HW,2013-03-04 20:22:00,
2013-03-04 15:27:00,37.2,18.2,26.45,NW,315,1.1,11.6,46,0.00,,,0.00,WUHU216HW,2013-03-04 20:27:00,
2013-03-04 15:32:00,37.5,18.0,26.45,WNW,293,9.1,9.1,45,0.00,,,0.00,WUHU216HW,2013-03-04 20:32:00,
2013-03-04 15:37:00,37.5,18.0,26.46,WSW,248,0.0,9.1,45,0.00,,,0.00,WUHU216HW,2013-03-04 20:37:00,
2013-03-04 15:42:00,37.5,18.5,26.45,WNW,293,5.3,9.1,46,0.00,,,0.00,WUHU216HW,2013-03-04 20:42:00,
2013-03-04 15:47:00,37.7,18.7,26.45,NW,315,0.0,7.1,46,0.00,,,0.00,WUHU216HW,2013-03-04 20:47:00,
2013-03-04 15:52:00,37.9,18.8,26.45,WNW,293,6.9,7.1,46,0.00,,,0.00,WUHU216HW,2013-03-04 20:52:00,
2013-03-04 15:57:00,37.9,18.8,26.45,WSW,248,0.0,6.9,46,0.00,,,0.00,WUHU216HW,2013-03-04 20:57:00,
2013-03-04 16:02:00,37.9,19.4,26.45,NW,315,0.0,6.7,47,0.00,,,0.00,WUHU216HW,2013-03-04 21:02:00,
2013-03-04 16:07:00,37.9,19.4,26.45,West,270,1.3,6.7,47,0.00,,,0.00,WUHU216HW,2013-03-04 21:07:00,
2013-03-04 16:12:00,38.1,19.0,26.45,WNW,293,7.3,7.3,46,0.00,,,0.00,WUHU216HW,2013-03-04 21:12:00,
2013-03-04 16:17:00,38.1,19.0,26.45,WSW,248,0.0,7.3,46,0.00,,,0.00,WUHU216HW,2013-03-04 21:17:00,
2013-03-04 16:22:00,38.1,19.0,26.45,NNW,338,3.5,3.5,46,0.00,,,0.00,WUHU216HW,2013-03-04 21:22:00,
2013-03-04 16:27:00,38.3,19.2,26.45,NW,315,1.5,6.0,46,0.00,,,0.00,WUHU216HW,2013-03-04 21:27:00,
2013-03-04 16:32:00,38.3,19.2,26.45,NW,315,0.0,6.0,46,0.00,,,0.00,WUHU216HW,2013-03-04 21:32:00,
2013-03-04 16:38:00,38.3,18.6,26.45,WNW,293,0.0,1.5,45,0.00,,,0.00,WUHU216HW,2013-03-04 21:38:00,
2013-03-04 16:43:00,38.4,19.3,26.45,NW,315,0.0,0.0,46,0.00,,,0.00,WUHU216HW,2013-03-04 21:43:00,
2013-03-04 16:48:00,38.4,19.3,26.45,WNW,293,0.0,0.0,46,0.00,,,0.00,WUHU216HW,2013-03-04 21:48:00,
2013-03-04 16:53:00,38.8,19.6,26.45,WNW,293,0.0,0.0,46,0.00,,,0.00,WUHU216HW,2013-03-04 21:53:00,
2013-03-04 16:58:00,38.8,19.1,26.45,WNW,293,0.0,0.0,45,0.00,,,0.00,WUHU216HW,2013-03-04 21:58:00,
2013-03-04 17:03:00,38.8,19.1,26.45,WNW,293,3.8,5.5,45,0.00,,,0.00,WUHU216HW,2013-03-04 22:03:00,
2013-03-04 17:08:00,38.8,19.1,26.45,NW,315,6.7,6.7,45,0.00,,,0.00,WUHU216HW,2013-03-04 22:08:00,
2013-03-04 17:13:00,38.8,18.6,26.46,NNW,338,0.0,6.7,44,0.00,,,0.00,WUHU216HW,2013-03-04 22:13:00,
2013-03-04 17:18:00,39.0,18.8,26.45,WSW,248,0.0,6.7,44,0.00,,,0.00,WUHU216HW,2013-03-04 22:18:00,
2013-03-04 17:23:00,39.0,18.8,26.45,West,270,0.0,0.0,44,0.00,,,0.00,WUHU216HW,2013-03-04 22:23:00,
2013-03-04 17:28:00,38.8,18.6,26.46,WSW,248,0.0,1.1,44,0.00,,,0.00,WUHU216HW,2013-03-04 22:28:00,
2013-03-04 17:33:00,38.8,18.6,26.47,NNW,338,0.0,1.1,44,0.00,,,0.00,WUHU216HW,2013-03-04 22:33:00,
2013-03-04 17:38:00,38.8,18.6,26.47,NW,315,0.0,0.0,44,0.00,,,0.00,WUHU216HW,2013-03-04 22:38:00,
2013-03-04 17:43:00,38.4,18.3,26.47,WNW,293,0.0,0.0,44,0.00,,,0.00,WUHU216HW,2013-03-04 22:43:00,
2013-03-04 17:48:00,38.4,18.3,26.47,NW,315,7.3,7.3,44,0.00,,,0.00,WUHU216HW,2013-03-04 22:48:00,
2013-03-04 17:53:00,38.1,17.4,26.47,NNW,338,0.0,7.3,43,0.00,,,0.00,WUHU216HW,2013-03-04 22:53:00,
2013-03-04 17:58:00,37.9,17.8,26.48,WNW,293,2.2,7.3,44,0.00,,,0.00,WUHU216HW,2013-03-04 22:58:00,
2013-03-04 18:03:00,37.7,17.6,26.48,NW,315,0.0,2.2,44,0.00,,,0.00,WUHU216HW,2013-03-04 23:03:00,
2013-03-04 18:08:00,37.5,17.5,26.47,NW,315,0.0,0.0,44,0.00,,,0.00,WUHU216HW,2013-03-04 23:08:00,
2013-03-04 18:13:00,37.5,17.5,26.48,NW,315,0.0,0.0,44,0.00,,,0.00,WUHU216HW,2013-03-04 23:13:00,
2013-03-04 18:19:00,37.2,17.7,26.47,NW,315,0.0,0.0,45,0.00,,,0.00,WUHU216HW,2013-03-04 23:19:00,
2013-03-04 18:24:00,37.0,17.0,26.48,NW,315,0.0,0.0,44,0.00,,,0.00,WUHU216HW,2013-03-04 23:24:00,
2013-03-04 18:29:00,37.0,17.0,26.48,NW,315,0.0,0.0,44,0.00,,,0.00,WUHU216HW,2013-03-04 23:29:00,
2013-03-04 18:34:00,36.6,17.2,26.48,NW,315,0.0,0.0,45,0.00,,,0.00,WUHU216HW,2013-03-04 23:34:00,
2013-03-04 18:39:00,36.5,17.0,26.48,NW,315,0.0,0.0,45,0.00,,,0.00,WUHU216HW,2013-03-04 23:39:00,
2013-03-04 18:44:00,36.3,16.8,26.48,WNW,293,0.0,0.0,45,0.00,,,0.00,WUHU216HW,2013-03-04 23:44:00,
2013-03-04 18:49:00,36.3,16.8,26.48,WNW,293,0.0,1.1,45,0.00,,,0.00,WUHU216HW,2013-03-04 23:49:00,
2013-03-04 18:54:00,36.1,16.7,26.48,WNW,293,0.0,1.1,45,0.00,,,0.00,WUHU216HW,2013-03-04 23:54:00,
2013-03-04 18:59:00,36.1,16.7,26.49,WNW,293,0.0,1.5,45,0.00,,,0.00,WUHU216HW,2013-03-04 23:59:00,
2013-03-04 19:04:00,35.9,16.5,26.49,WNW,293,0.0,1.5,45,0.00,,,0.00,WUHU216HW,2013-03-05 00:04:00,
2013-03-04 19:09:00,35.7,16.4,26.49,WNW,293,0.0,0.0,45,0.00,,,0.00,WUHU216HW,2013-03-05 00:09:00,
2013-03-04 19:14:00,35.7,16.4,26.49,West,270,0.0,0.0,45,0.00,,,0.00,WUHU216HW,2013-03-05 00:14:00,
2013-03-04 19:19:00,35.7,16.4,26.49,West,270,0.0,0.0,45,0.00,,,0.00,WUHU216HW,2013-03-05 00:19:00,
2013-03-04 19:24:00,35.6,15.7,26.48,WNW,293,0.0,0.0,44,0.00,,,0.00,WUHU216HW,2013-03-05 00:24:00,
2013-03-04 19:29:00,35.4,16.0,26.49,WNW,293,0.0,0.0,45,0.00,,,0.00,WUHU216HW,2013-03-05 00:29:00,
2013-03-04 19:34:00,35.4,16.0,26.48,WNW,293,0.0,0.0,45,0.00,,,0.00,WUHU216HW,2013-03-05 00:34:00,
2013-03-04 19:39:00,35.4,16.0,26.49,WNW,293,0.0,0.0,45,0.00,,,0.00,WUHU216HW,2013-03-05 00:39:00,
2013-03-04 19:44:00,35.2,15.9,26.49,West,270,0.0,0.0,45,0.00,,,0.00,WUHU216HW,2013-03-05 00:44:00,
2013-03-04 19:49:00,35.2,15.9,26.49,WNW,293,0.0,0.0,45,0.00,,,0.00,WUHU216HW,2013-03-05 00:49:00,
2013-03-04 19:54:00,35.2,15.9,26.48,WNW,293,0.0,0.0,45,0.00,,,0.00,WUHU216HW,2013-03-05 00:54:00,
2013-03-04 19:59:00,35.0,15.7,26.48,WNW,293,0.0,0.0,45,0.00,,,0.00,WUHU216HW,2013-03-05 00:59:00,
2013-03-04 20:04:00,34.8,15.5,26.48,WNW,293,0.0,0.0,45,0.00,,,0.00,WUHU216HW,2013-03-05 01:04:00,
2013-03-04 20:09:00,34.8,15.5,26.48,WNW,293,0.0,0.0,45,0.00,,,0.00,WUHU216HW,2013-03-05 01:09:00,
2013-03-04 20:14:00,34.7,15.3,26.48,West,270,0.0,0.0,45,0.00,,,0.00,WUHU216HW,2013-03-05 01:14:00,
2013-03-04 20:19:00,34.5,15.7,26.48,West,270,0.0,0.0,46,0.00,,,0.00,WUHU216HW,2013-03-05 01:19:00,
2013-03-04 20:24:00,34.5,15.7,26.48,West,270,0.0,0.0,46,0.00,,,0.00,WUHU216HW,2013-03-05 01:24:00,
2013-03-04 20:29:00,34.5,15.7,26.48,West,270,0.0,0.0,46,0.00,,,0.00,WUHU216HW,2013-03-05 01:29:00,
2013-03-04 20:34:00,34.5,15.7,26.48,West,270,0.0,0.0,46,0.00,,,0.00,WUHU216HW,2013-03-05 01:34:00,
2013-03-04 20:39:00,34.3,15.5,26.48,West,270,0.0,0.0,46,0.00,,,0.00,WUHU216HW,2013-03-05 01:39:00,
2013-03-04 20:44:00,34.3,15.5,26.48,West,270,0.0,0.0,46,0.00,,,0.00,WUHU216HW,2013-03-05 01:44:00,
2013-03-04 20:49:00,34.3,15.5,26.48,West,270,0.0,0.0,46,0.00,,,0.00,WUHU216HW,2013-03-05 01:49:00,
2013-03-04 20:54:00,34.3,15.5,26.48,West,270,0.0,0.0,46,0.00,,,0.00,WUHU216HW,2013-03-05 01:54:00,
2013-03-04 20:59:00,34.3,16.0,26.49,West,270,0.0,0.0,47,0.00,,,0.00,WUHU216HW,2013-03-05 01:59:00,
2013-03-04 21:04:00,34.3,16.0,26.49,WNW,293,0.0,0.0,47,0.00,,,0.00,WUHU216HW,2013-03-05 02:04:00,
2013-03-04 21:09:00,34.5,16.2,26.49,West,270,0.0,0.0,47,0.00,,,0.00,WUHU216HW,2013-03-05 02:09:00,
2013-03-04 21:14:00,34.5,16.2,26.49,West,270,0.0,0.0,47,0.00,,,0.00,WUHU216HW,2013-03-05 02:14:00,
2013-03-04 21:20:00,34.5,16.2,26.49,West,270,0.0,0.0,47,0.00,,,0.00,WUHU216HW,2013-03-05 02:20:00,
2013-03-04 21:25:00,34.3,16.0,26.48,West,270,0.0,0.0,47,0.00,,,0.00,WUHU216HW,2013-03-05 02:25:00,
2013-03-04 21:30:00,34.3,16.0,26.48,West,270,0.0,0.0,47,0.00,,,0.00,WUHU216HW,2013-03-05 02:30:00,
2013-03-04 21:35:00,34.3,16.0,26.48,West,270,0.0,0.0,47,0.00,,,0.00,WUHU216HW,2013-03-05 02:35:00,
2013-03-04 21:40:00,34.3,16.0,26.48,West,270,0.0,0.0,47,0.00,,,0.00,WUHU216HW,2013-03-05 02:40:00,
2013-03-04 21:45:00,34.3,16.0,26.48,West,270,0.0,0.0,47,0.00,,,0.00,WUHU216HW,2013-03-05 02:45:00,
2013-03-04 21:50:00,34.3,16.0,26.49,West,270,0.0,0.0,47,0.00,,,0.00,WUHU216HW,2013-03-05 02:50:00,
2013-03-04 21:55:00,34.3,16.0,26.48,West,270,0.0,0.0,47,0.00,,,0.00,WUHU216HW,2013-03-05 02:55:00,
2013-03-04 22:00:00,34.3,16.0,26.48,SW,225,0.0,0.0,47,0.00,,,0.00,WUHU216HW,2013-03-05 03:00:00,
2013-03-04 22:05:00,34.3,16.0,26.48,SW,225,0.0,0.0,47,0.00,,,0.00,WUHU216HW,2013-03-05 03:05:00,
2013-03-04 22:10:00,34.3,16.0,26.48,SW,225,0.0,0.0,47,0.00,,,0.00,WUHU216HW,2013-03-05 03:10:00,
2013-03-04 22:15:00,34.3,16.5,26.48,SW,225,0.0,0.0,48,0.00,,,0.00,WUHU216HW,2013-03-05 03:15:00,
2013-03-04 22:20:00,34.3,16.5,26.48,SW,225,0.0,0.0,48,0.00,,,0.00,WUHU216HW,2013-03-05 03:20:00,
2013-03-04 22:25:00,34.3,16.5,26.48,SW,225,0.0,0.0,48,0.00,,,0.00,WUHU216HW,2013-03-05 03:25:00,
2013-03-04 22:30:00,34.3,16.5,26.47,SW,225,0.0,0.0,48,0.00,,,0.00,WUHU216HW,2013-03-05 03:30:00,
2013-03-04 22:35:00,34.3,16.5,26.47,SW,225,0.0,0.0,48,0.00,,,0.00,WUHU216HW,2013-03-05 03:35:00,
2013-03-04 22:40:00,34.3,16.5,26.46,SW,225,0.0,0.0,48,0.00,,,0.00,WUHU216HW,2013-03-05 03:40:00,
2013-03-04 22:45:00,34.3,16.5,26.47,West,270,0.0,0.0,48,0.00,,,0.00,WUHU216HW,2013-03-05 03:45:00,
2013-03-04 22:50:00,34.3,16.5,26.47,West,270,0.0,0.0,48,0.00,,,0.00,WUHU216HW,2013-03-05 03:50:00,
2013-03-04 22:55:00,34.3,17.0,26.47,West,270,0.0,0.0,49,0.00,,,0.00,WUHU216HW,2013-03-05 03:55:00,
2013-03-04 23:00:00,34.3,17.0,26.48,West,270,0.0,0.0,49,0.00,,,0.00,WUHU216HW,2013-03-05 04:00:00,
2013-03-04 23:06:00,34.3,17.6,26.48,West,270,0.0,0.0,50,0.00,,,0.00,WUHU216HW,2013-03-05 04:06:00,
2013-03-04 23:11:00,34.3,17.6,26.48,West,270,0.0,0.0,50,0.00,,,0.00,WUHU216HW,2013-03-05 04:11:00,
2013-03-04 23:16:00,34.1,17.8,26.48,West,270,0.0,0.0,51,0.00,,,0.00,WUHU216HW,2013-03-05 04:16:00,
2013-03-04 23:21:00,34.1,18.2,26.48,West,270,0.0,0.0,52,0.00,,,0.00,WUHU216HW,2013-03-05 04:21:00,
2013-03-04 23:26:00,34.1,18.7,26.48,West,270,0.0,0.0,53,0.00,,,0.00,WUHU216HW,2013-03-05 04:26:00,
2013-03-04 23:31:00,34.3,19.3,26.48,West,270,0.0,0.0,54,0.00,,,0.00,WUHU216HW,2013-03-05 04:31:00,
2013-03-04 23:36:00,34.3,19.7,26.48,West,270,0.0,0.0,55,0.00,,,0.00,WUHU216HW,2013-03-05 04:36:00,
2013-03-04 23:41:00,34.3,19.7,26.47,SW,225,0.0,0.0,55,0.00,,,0.00,WUHU216HW,2013-03-05 04:41:00,
2013-03-04 23:46:00,34.1,19.5,26.47,SSE,158,0.2,4.2,55,0.00,,,0.00,WUHU216HW,2013-03-05 04:46:00,
2013-03-04 23:51:00,33.8,18.7,26.47,SSE,158,0.0,5.8,54,0.00,,,0.00,WUHU216HW,2013-03-05 04:51:00,
2013-03-04 23:57:00,33.6,19.9,26.47,SSE,158,0.0,5.8,57,0.00,,,0.00,WUHU216HW,2013-03-05 04:57:00,